Weather History for Bentonville, AR

Change the Weather History Date:

Saturday, October 13, 2012

  Actual Average Record
Temperature  
Mean Temperature 68 °F -  
Max Temperature 75 °F 72 °F 88 °F (1989)
Min Temperature 60 °F 47 °F 30 °F (1987)
Cooling Degree Days 2    
Growing Degree Days 18 (Base 50)    
Moisture  
Dew Point 61 °F    
Average Humidity 82    
Maximum Humidity 94    
Minimum Humidity 65    
Precipitation  
Precipitation 0.42 in - - ()
Sea Level Pressure  
Sea Level Pressure 29.98 in    
Wind  
Wind Speed 9 mph (SSE)    
Max Wind Speed 17 mph    
Max Gust Speed 28 mph    
Visibility 8 miles    
Events Thunderstorm    
Averages and records for this station are not official NWS values.
T = Trace of Precipitation, MM = Missing Value Source: NWS Daily Summary

Daily Weather History Graph

Daily Weather History Graph

Search for Another Location

Airport:

Trip Planner

Search our weather history database for the weather conditions in past years. The results will help you decide how hot, cold, wet, or windy it might be!

Date:

Astronomy

Oct. 13, 2012 Rise Set
Actual Time 7:22 AM CDT 6:42 PM CDT
Civil Twilight 6:56 AM CDT 7:08 PM CDT
Nautical Twilight 6:26 AM CDT 7:38 PM CDT
Astronomical Twilight 5:57 AM CDT 8:08 PM CDT
Moon 5:16 AM CDT (10/13) 5:25 PM CDT (10/13)
Length of Visible Light 12h 11m
Length of Day
11h 20m
Waning Crescent, 5% of the Moon is Illuminated
Oct 13
Waning Crescent
Oct 15
New
Oct 21
First Quarter
Oct 29
Full
Nov 6
Last Quarter

Hourly Weather History & Observations

Time (CDT) Temp. Dew Point Humidity Pressure Visibility Wind Dir Wind Speed Gust Speed Precip Events Conditions
12:55 AM 60.8 °F 57.2 °F 88% 30.09 in 9.0 mi SE 8.1 mph - N/A   Clear
1:35 AM 60.8 °F 57.2 °F 88% 30.09 in 8.0 mi SE 3.5 mph - N/A   Clear
1:55 AM 60.8 °F 59.0 °F 94% 30.09 in 7.0 mi SE 4.6 mph - N/A   Clear
2:15 AM 60.8 °F 59.0 °F 94% 30.08 in 7.0 mi ESE 5.8 mph - N/A   Clear
2:36 AM 60.8 °F 57.2 °F 88% 30.08 in 5.0 mi SE 5.8 mph - N/A   Clear
2:55 AM 60.8 °F 57.2 °F 88% 30.08 in 5.0 mi SE 5.8 mph - N/A   Clear
3:15 AM 60.8 °F 59.0 °F 94% 30.07 in 5.0 mi SE 5.8 mph - N/A   Clear
3:55 AM 62.6 °F 59.0 °F 88% 30.07 in 5.0 mi SE 5.8 mph - N/A   Clear
4:15 AM 62.6 °F 60.8 °F 94% 30.07 in 5.0 mi SE 5.8 mph - N/A   Clear
4:55 AM 62.6 °F 60.8 °F 94% 30.07 in 4.0 mi SSE 4.6 mph - N/A   Clear
5:15 AM 62.6 °F 59.0 °F 88% 30.07 in 4.0 mi South 3.5 mph - N/A   Clear
5:35 AM 64.4 °F 60.8 °F 88% 30.06 in 6.0 mi South 9.2 mph - N/A   Clear
5:56 AM 64.4 °F 60.8 °F 88% 30.06 in 7.0 mi South 8.1 mph - N/A   Clear
6:15 AM 64.4 °F 60.8 °F 88% 30.05 in 7.0 mi South 10.4 mph - N/A   Clear
6:35 AM 64.4 °F 60.8 °F 88% 30.06 in 7.0 mi South 6.9 mph - N/A   Clear
7:15 AM 64.4 °F 60.8 °F 88% 30.05 in 7.0 mi SSE 9.2 mph - N/A   Clear
7:35 AM 64.4 °F 60.8 °F 88% 30.05 in 6.0 mi South 9.2 mph - N/A   Clear
7:55 AM 64.4 °F 60.8 °F 88% 30.05 in 7.0 mi South 6.9 mph - N/A   Scattered Clouds
8:15 AM 64.4 °F 60.8 °F 88% 30.05 in 7.0 mi South 8.1 mph - N/A   Overcast
8:36 AM 66.2 °F 60.8 °F 83% 30.05 in 7.0 mi South 6.9 mph - N/A   Overcast
9:55 AM 69.8 °F 62.6 °F 78% 30.04 in 9.0 mi SSW 11.5 mph 20.7 mph N/A   Overcast
10:15 AM 71.6 °F 62.6 °F 73% 30.04 in 10.0 mi SSW 13.8 mph 19.6 mph N/A   Mostly Cloudy
10:55 AM 71.6 °F 62.6 °F 73% 30.02 in 10.0 mi SSW 17.3 mph 23.0 mph N/A   Scattered Clouds
11:35 AM 71.6 °F 62.6 °F 73% 30.02 in 10.0 mi South 11.5 mph 21.9 mph N/A   Overcast
11:55 AM 71.6 °F 62.6 °F 73% 30.01 in 10.0 mi South 13.8 mph 20.7 mph N/A   Overcast
12:35 PM 71.6 °F 62.6 °F 73% 30.00 in 10.0 mi South 13.8 mph 26.5 mph N/A   Overcast
12:55 PM 73.4 °F 62.6 °F 69% 29.97 in 10.0 mi South 15.0 mph 26.5 mph N/A   Overcast
1:15 PM 73.4 °F 62.6 °F 69% 29.96 in 10.0 mi South 16.1 mph 21.9 mph N/A   Overcast
1:36 PM 75.2 °F 62.6 °F 65% 29.94 in 10.0 mi South 12.7 mph 23.0 mph N/A   Mostly Cloudy
1:55 PM 75.2 °F 62.6 °F 65% 29.92 in 10.0 mi South 12.7 mph 24.2 mph N/A   Overcast
2:15 PM 75.2 °F 62.6 °F 65% 29.91 in 10.0 mi South 16.1 mph 27.6 mph N/A   Overcast
2:55 PM 73.4 °F 62.6 °F 69% 29.91 in 10.0 mi South 16.1 mph 23.0 mph N/A   Overcast
3:55 PM 73.4 °F 62.6 °F 69% 29.89 in 10.0 mi South 13.8 mph 21.9 mph N/A   Overcast
4:35 PM 71.6 °F 64.4 °F 78% 29.89 in 10.0 mi South 12.7 mph 21.9 mph N/A   Overcast
4:55 PM 71.6 °F 64.4 °F 78% 29.88 in 10.0 mi South 10.4 mph 18.4 mph N/A   Overcast
5:15 PM 71.6 °F 64.4 °F 78% 29.86 in 10.0 mi SSE 16.1 mph 20.7 mph N/A   Overcast
5:35 PM 71.6 °F 64.4 °F 78% 29.84 in 10.0 mi South 11.5 mph 23.0 mph N/A   Overcast
6:15 PM 69.8 °F 64.4 °F 83% 29.83 in 10.0 mi SSE 13.8 mph 18.4 mph N/A   Overcast
6:35 PM 69.8 °F 64.4 °F 83% 29.83 in 10.0 mi SSE 11.5 mph 19.6 mph N/A Thunderstorm Overcast
7:55 PM 68.0 °F 64.4 °F 88% 29.81 in 10.0 mi SSE 11.5 mph - 0.08 in Thunderstorm Overcast
8:55 PM 69.8 °F 64.4 °F 83% 29.80 in 10.0 mi SSE 10.4 mph - N/A   Overcast
9:35 PM 69.8 °F 64.4 °F 83% 29.80 in 8.0 mi SSW 8.1 mph 16.1 mph 0.02 in Thunderstorm Overcast
9:55 PM 66.2 °F 60.8 °F 83% 29.83 in 9.0 mi SSW 15.0 mph 27.6 mph 0.30 in Thunderstorm Thunderstorm
10:15 PM 62.6 °F 59.0 °F 88% 29.81 in 10.0 mi SSE 8.1 mph - 0.04 in   Mostly Cloudy
11:15 PM 64.4 °F 60.8 °F 88% 29.76 in 10.0 mi SSE 11.5 mph - N/A Thunderstorm Overcast